Regional Weather Roundup
Issued by NWS Cleveland, OH

Home | Current Version | Previous Version | Graphics & Text | Print | Product List | Glossary On
Versions: 1 2 3 4 5 6 7 8 9 10 11 12 13 14 15 16 17 18 19 20 21 22 23 24 25 26 27 28 29 30 31 32 33 34 35 36 37 38 39 40 41 42 43 44 45 46 47 48 49 50
000
ASUS41 KCLE 051602
RWRCLE
OHIO REGIONAL WEATHER ROUNDUP
NATIONAL WEATHER SERVICE CLEVELAND, OH
1200 PM EDT SAT SEP 05 2015

NOTE: "FAIR" INDICATES FEW OR NO CLOUDS BELOW 12,000 FEET WITH NO
SIGNIFICANT WEATHER AND/OR OBSTRUCTIONS TO VISIBILITY.

OHZ001>008-015>018-024>027-034-035-043-044-051700-
   NORTHWEST OHIO

CITY           SKY/WX    TMP DP  RH WIND       PRES   REMARKS
DEFIANCE       PTSUNNY   74  65  73 S7        30.18F
FINDLAY        LGT RAIN  71  67  87 E5        30.18F
TOLEDO EXPRESS CLOUDY    74  67  78 S8        30.17F
TOLEDO EXEC    CLOUDY    72  67  84 S10       30.17F
LIMA           PTSUNNY   76  68  76 SE7       30.19S
$$

OHZ009>014-019>023-028>033-038-089-051700-
   NORTHEAST OHIO

CITY           SKY/WX    TMP DP  RH WIND       PRES   REMARKS
CLE-HOPKINS    MOSUNNY   81  64  56 S7        30.19S
CLE-LAKEFRONT  SUNNY     80  67  64 N3        30.15F
CUY CO. ARPT   MOSUNNY   84  66  54 SE6       30.18F
LORAIN-ELYRIA  MOSUNNY   80  66  62 VRB3      30.18S
ASHTABULA      SUNNY     82  68  62 S6        30.20S
AKRON-CANTON   MOSUNNY   81  65  58 CALM      30.20S
WOOSTER        SUNNY     81  63  54 S3        30.20F
MANSFIELD      MOSUNNY   80  63  55 S7        30.20F
YOUNGSTOWN     MOSUNNY   81  67  62 VRB7      30.20S
$$

OHZ042-051>053-060>062-070>072-077>081-051700-
  SOUTHWEST OHIO

CITY           SKY/WX    TMP DP  RH WIND       PRES   REMARKS
CINC-COVINGTON MOSUNNY   83  66  56 CALM      30.17S
CINC-LUNKEN    MOSUNNY   81  70  69 CALM      30.17S
HAMILTON       MOSUNNY   83  67  58 CALM      30.18S
DAYTON         PTSUNNY   82  64  54 SE7       30.20S
WRIGHT-PAT AFB NOT AVBL
DAYTON GENERAL SUNNY     83  63  50 E3        30.18S
WILMINGTON     SUNNY     82  64  54 SE3       30.18S
$$

OHZ036-037-039>041-045>050-054>059-063>069-073>076-082>088-051700-
  CENTRAL AND SOUTHEAST OHIO

CITY           SKY/WX    TMP DP  RH WIND       PRES   REMARKS
COLUMBUS       MOSUNNY   81  63  54 CALM      30.18F
OSU AIRPORT    SUNNY     82  64  54 E5        30.19F
BOLTON FIELD   SUNNY     82  64  54 CALM      30.20R
RICKENBACK AFB SUNNY     80  65  59 CALM      30.18F
NEWARK         SUNNY     81  65  58 VRB5      30.19S
MARION         MOSUNNY   80  64  58 SE5       30.19F
LANCASTER      SUNNY     81  65  58 CALM      30.19S
ZANESVILLE     SUNNY     83  68  60 S3        30.19S
NEW PHILLY     SUNNY     82  67  60 VRB3      30.19F
$$


USA.gov is the U.S. government's official web portal to all federal, state and local government web resources and services.